Location: Skalnate Pleso
(49.1889°N, 20.2450°E)
Time: 23:31:48
(UTC+02:00)

Cosmos 1605 Rocket - Pass Details

Date: 26 February 2020
Orbit: 944 x 1007 km, 82.9° (Epoch: 05 April)

Event Time Altitude Azimuth Distance (km) Brightness Sun altitude
Rises 03:35:51 0° 347° (NNW) 3,677 7.1 -28.6°
Reaches altitude 10° 03:38:25 10° 344° (NNW) 2,717 6.4 -28.2°
Enters shadow 03:42:08 36° 327° (NNW) 1,475 4.8 -27.7°
